SCP
0 0 0 0 0 0 0 0 0 0 0 0 0 0 0 -0 0 0 0 0 -0 -0 0 -0 -0 -0 0 0 0 0 0 0 0 0 0 0 0 0 0 0 0 0 0
0 0 0 0 0 0 0 0 0 0 0 0 0 -0 -0 -0 0 0 0 0 0 0 0 0 0 0 0 0 0 0 0 0 0 0 0 0 0 0 0 0 0 0 0
0 0 0 0 0 0 0 0 0 0 0 0 0 0 0 -0 -0 0 0 0 0 0 0 0 0 0 0 0 0 0 0 0 0 0 0 0 0 0 0 0 0 0 0
0 0 0 0 0 0 0 0 0 0 0 0 0 0 0 0 0 0 0 0 0 0 0 0 0 0 0 0 0 0 0 0 0 0 0 0 0 0 0 0 0 0 0
0 0 0 0 0 0 0 0 -0 0 0 0 0 0 0 0 0 0 0 0 0 0 0 0 0 0 0 0 0 0 0 0 0 0 0 0 0 0 -0 0 -0 0 0
0 -0 -0 0 0 0 0 0 0 0 0 0 0 0 0 0 0 0 0 0 0 0 0 0 0 0 0 0 0 0 0 0 0 0 0 0 0 0 0 0 0 0 0
0 0 0 0 0 0 0 -0 0 0 0 0 0 0 0 0 0 0 0 0 0 0 0 0 0 0 0 0 0 0 0 0 0 0 0 0 0 0 0 0 0 0 0
0 0 0 0 0 0 0 0 0 0 0 0 0 0 0 0 0 0 0 0 0 0 0 0 0 0 0 0 0 0 0 0 0 0 0 0 0 0 0 0 0 0 0
0 0 0 0 0 0 0 0 0 0 0 0 0 0 0 0 0 0 0 0 0 0 0 0 0 0 0 0 0 0 0 0 0 0 0 0 0 0 0 0 0 0 0
0 0 0 0 0 0 0 0 0 0 0 0 0 0 0 0 0 0 0 0 0 0 0 0 0 0 0 0 0 0 0 0 0 0 0 0 0 0 0 0 0 0 0
0 0 0 0 0 0 0 0 0 0 0 0 0 0 0 0 0 0 0 0 0 0 0 0 0 0 0 0 0 0 0 0 0 -0 0 0 0 0 0 0 0 0 0
0 0 0 0 0 0 0 0 0 0 0 0 0 0 0 0 0 0 0 0 0 0 0 0 0 0 0 0 0 0 0 0 -0 0 0 0 0 0 0 0 0 0 0
0 0 0 0 0 0 0 0 0 0 0 0 0 0 0 -0 0 0 0 0 0 0 0 0 0 0 0 0 0 0 -0 -0 -0 0 -0 -0 -0 0 0 0 0 0 0
-0 0 0 0 0 0 0 0 0 0 0 0 0 0 0 0 0 0 0 -0 -0 -0 -0 0 0 -0 0 0 -0 -0 0 0 0 0 0 -0 -0 0 0 0 0 0 0
-0 0 0 0 0 0 0 0 0 0 0 0 0 0 0 0 0 0 0 -0 -0 -0 0 0 -0 -0 -0 -0 -0 0 0 -0 -0 -0 -0 0 -0 0 0 0 0 0 0
-0 0 0 0 0 0 0 0 0 0 0 0 0 0 0 0 -0 0 0 0 -0 -0 0 0 0 0 0 -0 -0 -0 -0 -0 -0 -0 -0 -0 0 0 0 0 0 0 0
0 0 0 0 0 0 0 0 0 0 0 0 0 0 0 -0 -0 0 0 0 0 0 0 0 0 0 0 0 0 0 0 0 0 -0 0 0 0 0 0 0 0 0 0
0 0 0 0 0 0 0 0 0 0 0 0 0 0 0 0 0 0 0 0 0 0 -0 -0 0 0 0 0 0 0 0 0 0 0 0 0 0 0 0 0 0 0 0
0 0 0 0 0 0 0 0 0 0 0 0 0 0 0 0 0 0 0 0 0 0 0 0 0 0 0 0 0 0 0 0 0 0 0 0 0 0 0 0 0 0 0
0 0 0 0 0 0 0 0 0 0 0 0 0 0 0 0 0 0 0 0 0 0 0 0 0 0 0 0 0 0 0 0 0 0 0 0 0 0 0 0 0 0 0
0 0 0 0 0 0 0 0 0 0 0 0 0 0 0 0 0 0 0 0 0 0 0 0 0 0 0 0 0 0 0 0 0 0 0 0 0 0 0 0 0 0 0
0 0 0 0 0 0 0 0 0 0 0 0 0 0 0 0 0 0 0 0 0 0 0 0 0 0 0 0 0 0 0 0 0 0 0 0 0 0 0 0 0 0 0
0 0 0 0 0 0 0 0 0 0 0 0 0 0 0 0 0 0 0 0 0 0 0 0 0 0 0 0 0 0 0 0 0 0 0 0 0 0 0 0 0 0 0
0 0 0 0 0 0 0 0 0 0 0 0 0 0 0 0 0 0 0 0 0 0 0 0 0 0 0 0 0 0 0 0 0 0 0 0 0 0 0 0 0 0 0
0 0 0 0 0 0 0 0 0 0 0 0 0 0 0 0 0 0 0 0 0 0 0 0 0 0 0 0 0 0 0 0 0 0 0 0 0 0 0 0 0 0 0
-0 0 0 0 0 0 0 0 0 0 0 0 0 0 0 0 0 0 0 0 0 0 0 0 0 0 0 0 0 0 0 0 0 0 0 0 0 0 0 0 0 0 0
Wind_Speed_500mb
20 21 24 27 17 13 9 6 8 10 18 18 18 19 17 19 26 28 25 17 18 15 17 19 19 23 22 22 23 24 23 22 23 23 22 20 20 19 20 18 18 17 17
22 22 25 23 16 14 15 13 12 20 18 24 26 28 20 20 22 25 23 27 25 18 20 19 22 21 24 24 28 26 25 23 24 25 24 24 21 20 21 21 20 20 21
23 26 27 22 21 20 20 23 27 27 27 25 23 26 29 29 28 31 27 27 27 26 26 28 25 21 24 29 27 29 29 27 27 26 26 24 23 23 22 23 24 26 25
30 32 30 27 25 25 25 28 34 25 35 23 31 35 36 33 31 33 35 33 31 30 28 28 31 25 26 27 33 30 31 35 32 29 25 24 25 27 28 27 30 32 30
34 34 35 32 32 30 31 28 22 30 32 35 26 26 29 35 41 42 42 45 42 37 37 34 33 34 33 32 31 36 33 31 30 30 30 25 30 27 24 22 24 23 31
32 39 40 36 30 30 31 25 22 25 22 23 24 27 29 33 38 43 48 43 42 44 45 38 35 37 36 35 29 32 36 31 30 30 28 30 25 30 32 29 31 30 24
13 10 27 26 28 28 21 20 21 18 20 20 23 29 34 33 34 38 34 40 40 39 43 39 37 36 38 37 35 30 28 32 30 27 29 28 30 35 38 35 36 39 40
11 12 14 17 20 19 19 22 18 16 15 18 23 25 25 28 29 33 37 41 41 36 37 41 40 36 41 36 37 32 30 35 31 35 31 27 26 30 36 37 38 39 38
14 14 15 15 16 18 18 17 18 20 20 17 21 22 10 10 3 5 12 26 37 41 38 33 35 23 25 28 31 32 36 36 48 45 31 25 24 28 35 34 34 32 30
12 8 9 10 16 19 16 19 20 17 21 21 24 25 29 29 12 6 3 3 13 18 24 16 16 21 12 22 28 37 36 27 26 26 27 22 26 30 28 24 23 25 28
7 6 8 13 13 14 16 14 14 15 17 18 19 21 24 30 32 30 13 5 14 10 14 16 26 16 14 8 15 22 24 23 18 22 19 23 27 24 20 20 20 19 20
1 6 6 6 7 9 8 9 8 10 11 11 13 17 18 17 22 25 26 15 6 11 9 15 14 14 12 11 12 25 24 17 16 18 15 14 14 14 14 16 16 15 15
0 6 6 11 14 12 10 9 8 9 9 9 5 9 15 17 17 19 22 29 36 34 24 15 8 5 10 10 11 8 9 9 7 4 6 9 10 9 6 7 10 12 13
1 6 7 13 14 15 13 9 5 3 4 7 6 2 7 15 19 23 22 37 41 32 32 27 15 12 15 13 9 7 8 5 4 2 1 1 2 4 6 8 10 12 13
2 10 11 10 14 13 10 4 5 8 8 6 7 8 7 10 20 23 23 29 31 36 31 28 23 10 6 7 8 10 7 4 3 1 2 4 4 5 7 9 12 12 13
22 25 20 20 17 13 7 5 11 13 9 10 9 7 8 9 14 20 25 28 29 29 30 41 32 27 17 12 10 9 6 4 3 2 4 4 4 6 8 12 13 13 13
20 17 12 14 11 10 7 5 12 13 11 11 11 9 12 11 12 17 22 30 31 26 26 41 31 27 23 20 13 10 9 7 8 8 6 5 5 8 11 13 15 16 16
19 19 13 9 9 9 12 14 15 15 14 15 17 13 12 11 15 18 19 22 26 26 22 38 40 32 27 20 13 12 11 9 9 4 4 6 10 11 13 15 17 18 20
17 17 15 12 10 8 10 16 18 19 18 19 20 17 16 11 13 16 18 17 19 20 22 28 41 37 30 22 18 15 13 14 10 4 6 8 10 13 15 18 18 19 20
13 17 16 16 11 8 7 11 15 19 21 22 20 18 19 17 18 14 13 12 14 19 22 22 28 30 27 23 17 13 15 12 9 4 1 6 11 19 20 19 22 22 21
13 17 18 17 11 7 6 8 12 16 18 21 19 17 17 19 19 21 18 19 17 21 27 27 29 27 24 22 16 13 14 11 7 0 0 6 12 16 24 26 29 32 30
16 20 18 14 9 10 13 8 10 13 14 14 16 17 17 18 18 19 19 22 21 12 19 23 24 20 18 17 15 15 13 10 6 2 3 4 8 10 13 18 21 24 29
24 24 17 15 9 15 16 12 12 12 11 10 12 13 12 13 14 14 17 18 19 20 18 14 17 18 16 13 13 17 16 10 7 0 4 4 3 7 4 7 8 11 17
34 31 26 20 14 17 17 15 15 16 13 11 9 7 6 9 9 9 10 12 15 16 17 15 11 11 11 11 10 10 12 14 10 5 6 7 8 8 6 5 5 7 10
42 39 32 26 18 19 22 20 18 16 15 12 11 9 9 7 10 12 10 10 13 14 16 15 13 10 9 9 9 10 12 13 15 15 17 12 7 9 10 11 12 9 8
61 41 40 28 21 18 25 26 22 18 14 13 14 14 14 12 12 13 13 12 12 18 24 24 22 21 19 19 16 4 11 13 15 15 18 12 14 15 16 12 13 12 7
Wind_Direction_500mb
227 234 210 199 202 206 214 206 212 214 207 197 212 212 208 196 213 237 250 277 257 255 248 265 262 249 257 257 249 241 236 232 231 231 232 231 233 238 240 246 248 250 249
221 218 208 211 222 231 242 251 259 259 238 224 243 226 204 209 231 241 251 258 264 279 252 270 281 260 254 259 261 254 247 240 239 239 238 238 242 244 249 254 256 254 252
223 224 221 227 232 239 243 254 266 271 255 229 224 223 225 227 231 242 252 252 261 265 257 268 274 281 265 256 261 260 260 254 249 248 246 247 246 254 257 262 264 261 258
227 231 229 227 231 238 254 273 269 267 246 258 245 240 238 242 248 247 250 251 259 259 268 275 280 288 290 273 255 255 257 257 256 258 255 252 263 264 266 258 265 267 262
228 232 234 230 236 248 253 271 269 278 250 259 259 255 254 258 256 257 252 252 248 254 253 263 268 278 280 282 270 256 259 256 257 263 264 268 265 269 274 271 279 283 264
236 243 234 227 240 250 257 253 272 246 238 248 250 256 254 257 256 253 249 251 255 257 258 263 263 268 271 277 271 260 255 255 255 260 269 266 272 270 271 275 277 279 282
235 219 210 217 239 246 234 241 243 238 242 255 266 264 263 262 265 263 260 249 253 258 255 255 257 261 263 268 258 253 258 251 246 250 254 262 262 266 266 267 272 274 277
170 169 193 205 215 219 218 220 226 227 242 249 259 270 286 278 272 269 263 255 252 253 256 253 255 263 257 253 251 258 258 251 252 255 248 253 269 278 277 275 272 272 279
146 162 172 185 184 199 216 226 229 241 246 248 262 254 261 248 247 270 288 257 249 247 250 261 263 250 242 263 248 250 252 261 257 237 241 259 267 284 288 283 276 275 279
189 181 228 229 243 232 242 239 242 252 253 261 255 249 242 248 234 209 25 290 246 239 238 252 240 247 273 263 257 242 257 261 220 237 249 248 273 290 288 289 289 288 292
173 198 205 237 231 229 237 248 249 252 254 254 249 242 239 237 239 241 249 197 239 247 269 242 250 256 257 243 238 212 210 240 241 225 235 262 287 291 287 290 291 295 299
164 135 120 139 136 154 173 179 199 229 237 254 260 241 230 222 221 214 200 167 174 120 149 139 181 196 195 200 168 193 238 245 243 256 263 267 274 282 291 296 303 312 317
269 163 148 138 133 135 148 164 186 213 243 236 250 229 212 201 195 185 202 172 140 130 132 145 147 165 166 177 184 204 198 209 198 201 251 271 277 289 304 332 341 341 338
76 161 155 142 130 126 122 120 127 137 151 213 212 161 187 197 192 195 201 180 151 144 139 128 141 143 135 137 138 142 151 161 175 178 254 330 0 353 360 1 0 355 356
36 145 143 144 129 132 143 153 193 186 176 153 163 178 155 160 190 192 198 202 202 162 158 156 145 179 179 180 186 183 185 192 154 71 352 354 13 29 29 14 5 5 9
107 112 113 155 151 146 110 89 163 170 173 156 131 125 141 149 165 179 181 180 202 213 169 175 177 177 183 177 170 161 171 146 128 100 69 53 45 24 3 1 10 14 13
121 113 117 131 137 122 102 104 128 137 144 139 149 143 125 118 145 157 166 176 187 206 207 181 184 182 181 180 176 177 162 154 136 114 78 41 13 0 13 29 31 25 22
134 142 150 160 149 121 88 98 109 115 127 125 111 145 145 138 138 146 165 173 188 204 211 181 178 181 185 183 180 163 156 151 131 101 35 11 7 21 27 28 28 24 18
169 170 159 164 168 149 106 100 106 111 119 115 114 118 117 105 129 142 148 161 176 191 194 193 179 185 185 182 179 165 170 161 145 87 11 21 41 46 39 32 27 21 15
172 177 166 155 154 159 141 115 105 112 116 117 117 113 105 100 89 108 129 146 157 164 156 170 172 185 184 183 178 177 162 172 160 127 292 68 56 68 51 38 33 30 28
173 181 176 160 151 158 166 138 120 123 117 116 117 119 112 107 99 93 97 105 107 138 152 165 172 175 178 178 181 181 175 161 124 355 340 88 100 78 60 61 55 48 36
196 188 185 169 166 188 183 162 145 147 135 128 125 116 107 104 100 96 94 98 106 132 158 157 165 168 174 181 176 178 172 149 130 212 208 151 124 104 70 57 54 45 37
211 204 204 190 200 197 188 176 167 166 160 144 120 108 101 96 96 98 103 106 110 118 126 139 154 155 155 156 159 155 158 168 191 241 213 218 164 146 70 49 52 39 33
233 219 214 213 215 197 198 190 182 177 185 178 159 113 124 118 118 108 112 120 122 130 131 140 149 164 175 192 193 203 202 182 181 206 211 218 202 163 155 129 32 352 15
226 234 224 220 217 207 199 197 198 186 176 182 193 185 180 167 155 146 149 148 136 145 142 141 145 153 166 178 195 228 224 208 219 218 220 229 252 248 264 276 277 286 343
256 254 237 215 223 216 208 205 208 204 186 193 195 196 197 194 186 171 165 149 149 148 138 136 131 122 115 107 84 52 251 236 239 200 222 242 250 265 261 264 263 255 250
Wind_Speed_850mb
20 21 24 27 17 13 9 6 8 10 18 18 18 19 17 19 26 28 25 17 18 15 17 19 19 23 22 22 23 24 23 22 23 23 22 20 20 19 20 18 18 17 17
22 22 25 23 16 14 15 13 12 20 18 24 26 28 20 20 22 25 23 27 25 18 20 19 22 21 24 24 28 26 25 23 24 25 24 24 21 20 21 21 20 20 21
23 26 27 22 21 20 20 23 27 27 27 25 23 26 29 29 28 31 27 27 27 26 26 28 25 21 24 29 27 29 29 27 27 26 26 24 23 23 22 23 24 26 25
30 32 30 27 25 25 25 28 34 25 35 23 31 35 36 33 31 33 35 33 31 30 28 28 31 25 26 27 33 30 31 35 32 29 25 24 25 27 28 27 30 32 30
34 34 35 32 32 30 31 28 22 30 32 35 26 26 29 35 41 42 42 45 42 37 37 34 33 34 33 32 31 36 33 31 30 30 30 25 30 27 24 22 24 23 31
32 39 40 36 30 30 31 25 22 25 22 23 24 27 29 33 38 43 48 43 42 44 45 38 35 37 36 35 29 32 36 31 30 30 28 30 25 30 32 29 31 30 24
13 10 27 26 28 28 21 20 21 18 20 20 23 29 34 33 34 38 34 40 40 39 43 39 37 36 38 37 35 30 28 32 30 27 29 28 30 35 38 35 36 39 40
11 12 14 17 20 19 19 22 18 16 15 18 23 25 25 28 29 33 37 41 41 36 37 41 40 36 41 36 37 32 30 35 31 35 31 27 26 30 36 37 38 39 38
14 14 15 15 16 18 18 17 18 20 20 17 21 22 10 10 3 5 12 26 37 41 38 33 35 23 25 28 31 32 36 36 48 45 31 25 24 28 35 34 34 32 30
12 8 9 10 16 19 16 19 20 17 21 21 24 25 29 29 12 6 3 3 13 18 24 16 16 21 12 22 28 37 36 27 26 26 27 22 26 30 28 24 23 25 28
7 6 8 13 13 14 16 14 14 15 17 18 19 21 24 30 32 30 13 5 14 10 14 16 26 16 14 8 15 22 24 23 18 22 19 23 27 24 20 20 20 19 20
1 6 6 6 7 9 8 9 8 10 11 11 13 17 18 17 22 25 26 15 6 11 9 15 14 14 12 11 12 25 24 17 16 18 15 14 14 14 14 16 16 15 15
0 6 6 11 14 12 10 9 8 9 9 9 5 9 15 17 17 19 22 29 36 34 24 15 8 5 10 10 11 8 9 9 7 4 6 9 10 9 6 7 10 12 13
1 6 7 13 14 15 13 9 5 3 4 7 6 2 7 15 19 23 22 37 41 32 32 27 15 12 15 13 9 7 8 5 4 2 1 1 2 4 6 8 10 12 13
2 10 11 10 14 13 10 4 5 8 8 6 7 8 7 10 20 23 23 29 31 36 31 28 23 10 6 7 8 10 7 4 3 1 2 4 4 5 7 9 12 12 13
22 25 20 20 17 13 7 5 11 13 9 10 9 7 8 9 14 20 25 28 29 29 30 41 32 27 17 12 10 9 6 4 3 2 4 4 4 6 8 12 13 13 13
20 17 12 14 11 10 7 5 12 13 11 11 11 9 12 11 12 17 22 30 31 26 26 41 31 27 23 20 13 10 9 7 8 8 6 5 5 8 11 13 15 16 16
19 19 13 9 9 9 12 14 15 15 14 15 17 13 12 11 15 18 19 22 26 26 22 38 40 32 27 20 13 12 11 9 9 4 4 6 10 11 13 15 17 18 20
17 17 15 12 10 8 10 16 18 19 18 19 20 17 16 11 13 16 18 17 19 20 22 28 41 37 30 22 18 15 13 14 10 4 6 8 10 13 15 18 18 19 20
13 17 16 16 11 8 7 11 15 19 21 22 20 18 19 17 18 14 13 12 14 19 22 22 28 30 27 23 17 13 15 12 9 4 1 6 11 19 20 19 22 22 21
13 17 18 17 11 7 6 8 12 16 18 21 19 17 17 19 19 21 18 19 17 21 27 27 29 27 24 22 16 13 14 11 7 0 0 6 12 16 24 26 29 32 30
16 20 18 14 9 10 13 8 10 13 14 14 16 17 17 18 18 19 19 22 21 12 19 23 24 20 18 17 15 15 13 10 6 2 3 4 8 10 13 18 21 24 29
24 24 17 15 9 15 16 12 12 12 11 10 12 13 12 13 14 14 17 18 19 20 18 14 17 18 16 13 13 17 16 10 7 0 4 4 3 7 4 7 8 11 17
34 31 26 20 14 17 17 15 15 16 13 11 9 7 6 9 9 9 10 12 15 16 17 15 11 11 11 11 10 10 12 14 10 5 6 7 8 8 6 5 5 7 10
42 39 32 26 18 19 22 20 18 16 15 12 11 9 9 7 10 12 10 10 13 14 16 15 13 10 9 9 9 10 12 13 15 15 17 12 7 9 10 11 12 9 8
61 41 40 28 21 18 25 26 22 18 14 13 14 14 14 12 12 13 13 12 12 18 24 24 22 21 19 19 16 4 11 13 15 15 18 12 14 15 16 12 13 12 7
Wind_Direction_850mb
227 234 210 199 202 206 214 206 212 214 207 197 212 212 208 196 213 237 250 277 257 255 248 265 262 249 257 257 249 241 236 232 231 231 232 231 233 238 240 246 248 250 249
221 218 208 211 222 231 242 251 259 259 238 224 243 226 204 209 231 241 251 258 264 279 252 270 281 260 254 259 261 254 247 240 239 239 238 238 242 244 249 254 256 254 252
223 224 221 227 232 239 243 254 266 271 255 229 224 223 225 227 231 242 252 252 261 265 257 268 274 281 265 256 261 260 260 254 249 248 246 247 246 254 257 262 264 261 258
227 231 229 227 231 238 254 273 269 267 246 258 245 240 238 242 248 247 250 251 259 259 268 275 280 288 290 273 255 255 257 257 256 258 255 252 263 264 266 258 265 267 262
228 232 234 230 236 248 253 271 269 278 250 259 259 255 254 258 256 257 252 252 248 254 253 263 268 278 280 282 270 256 259 256 257 263 264 268 265 269 274 271 279 283 264
236 243 234 227 240 250 257 253 272 246 238 248 250 256 254 257 256 253 249 251 255 257 258 263 263 268 271 277 271 260 255 255 255 260 269 266 272 270 271 275 277 279 282
235 219 210 217 239 246 234 241 243 238 242 255 266 264 263 262 265 263 260 249 253 258 255 255 257 261 263 268 258 253 258 251 246 250 254 262 262 266 266 267 272 274 277
170 169 193 205 215 219 218 220 226 227 242 249 259 270 286 278 272 269 263 255 252 253 256 253 255 263 257 253 251 258 258 251 252 255 248 253 269 278 277 275 272 272 279
146 162 172 185 184 199 216 226 229 241 246 248 262 254 261 248 247 270 288 257 249 247 250 261 263 250 242 263 248 250 252 261 257 237 241 259 267 284 288 283 276 275 279
189 181 228 229 243 232 242 239 242 252 253 261 255 249 242 248 234 209 25 290 246 239 238 252 240 247 273 263 257 242 257 261 220 237 249 248 273 290 288 289 289 288 292
173 198 205 237 231 229 237 248 249 252 254 254 249 242 239 237 239 241 249 197 239 247 269 242 250 256 257 243 238 212 210 240 241 225 235 262 287 291 287 290 291 295 299
164 135 120 139 136 154 173 179 199 229 237 254 260 241 230 222 221 214 200 167 174 120 149 139 181 196 195 200 168 193 238 245 243 256 263 267 274 282 291 296 303 312 317
269 163 148 138 133 135 148 164 186 213 243 236 250 229 212 201 195 185 202 172 140 130 132 145 147 165 166 177 184 204 198 209 198 201 251 271 277 289 304 332 341 341 338
76 161 155 142 130 126 122 120 127 137 151 213 212 161 187 197 192 195 201 180 151 144 139 128 141 143 135 137 138 142 151 161 175 178 254 330 0 353 360 1 0 355 356
36 145 143 144 129 132 143 153 193 186 176 153 163 178 155 160 190 192 198 202 202 162 158 156 145 179 179 180 186 183 185 192 154 71 352 354 13 29 29 14 5 5 9
107 112 113 155 151 146 110 89 163 170 173 156 131 125 141 149 165 179 181 180 202 213 169 175 177 177 183 177 170 161 171 146 128 100 69 53 45 24 3 1 10 14 13
121 113 117 131 137 122 102 104 128 137 144 139 149 143 125 118 145 157 166 176 187 206 207 181 184 182 181 180 176 177 162 154 136 114 78 41 13 0 13 29 31 25 22
134 142 150 160 149 121 88 98 109 115 127 125 111 145 145 138 138 146 165 173 188 204 211 181 178 181 185 183 180 163 156 151 131 101 35 11 7 21 27 28 28 24 18
169 170 159 164 168 149 106 100 106 111 119 115 114 118 117 105 129 142 148 161 176 191 194 193 179 185 185 182 179 165 170 161 145 87 11 21 41 46 39 32 27 21 15
172 177 166 155 154 159 141 115 105 112 116 117 117 113 105 100 89 108 129 146 157 164 156 170 172 185 184 183 178 177 162 172 160 127 292 68 56 68 51 38 33 30 28
173 181 176 160 151 158 166 138 120 123 117 116 117 119 112 107 99 93 97 105 107 138 152 165 172 175 178 178 181 181 175 161 124 355 340 88 100 78 60 61 55 48 36
196 188 185 169 166 188 183 162 145 147 135 128 125 116 107 104 100 96 94 98 106 132 158 157 165 168 174 181 176 178 172 149 130 212 208 151 124 104 70 57 54 45 37
211 204 204 190 200 197 188 176 167 166 160 144 120 108 101 96 96 98 103 106 110 118 126 139 154 155 155 156 159 155 158 168 191 241 213 218 164 146 70 49 52 39 33
233 219 214 213 215 197 198 190 182 177 185 178 159 113 124 118 118 108 112 120 122 130 131 140 149 164 175 192 193 203 202 182 181 206 211 218 202 163 155 129 32 352 15
226 234 224 220 217 207 199 197 198 186 176 182 193 185 180 167 155 146 149 148 136 145 142 141 145 153 166 178 195 228 224 208 219 218 220 229 252 248 264 276 277 286 343
256 254 237 215 223 216 208 205 208 204 186 193 195 196 197 194 186 171 165 149 149 148 138 136 131 122 115 107 84 52 251 236 239 200 222 242 250 265 261 264 263 255 250